Wetbulb
57.89 58.41 58.32 57.58 61.62 62.29 62.99 63.52 63.75 62.95 63.10 62.97 62.35 61.42 60.73 60.54 59.41 52.70 49.27 58.60 56.95 62.58 59.84 52.70 52.93 50.78 51.08 48.33 47.90 44.43 38.64 36.34 38.70 39.32 40.27 43.40 42.64 43.88 46.13 47.89 50.41 54.03 54.77 56.97 60.80
57.59 58.16 57.89 58.12 61.11 61.75 62.58 63.22 63.26 63.27 62.86 63.00 62.35 61.21 60.25 60.19 51.78 48.96 56.98 62.86 63.93 63.34 53.24 50.90 50.18 51.61 49.09 47.38 45.56 42.31 37.22 39.35 43.11 41.54 41.86 43.53 44.12 44.77 46.13 49.00 50.67 53.83 57.12 60.27 61.31
56.98 57.61 58.09 58.34 58.98 61.15 62.07 62.88 62.83 62.79 62.65 62.32 61.87 60.05 59.24 58.38 48.65 48.89 60.49 62.48 64.48 61.61 53.26 52.97 53.04 50.65 48.15 48.31 44.43 43.40 39.23 41.26 43.31 44.35 45.01 44.40 43.07 44.35 45.34 43.40 51.69 53.59 55.80 59.54 60.22
56.02 57.00 57.31 57.93 57.80 60.83 61.54 62.45 62.28 62.28 62.04 61.60 60.75 59.29 57.09 53.59 46.06 51.08 61.67 62.46 64.69 54.23 50.79 50.13 49.47 47.16 44.53 45.00 46.26 41.63 42.38 41.74 44.69 45.99 45.17 43.52 44.19 44.34 44.99 46.17 50.50 57.41 58.54 59.72 59.52
55.42 55.31 56.63 57.35 57.47 60.54 61.03 62.01 62.27 61.89 61.13 60.42 59.26 59.46 54.21 46.30 47.49 53.10 61.34 62.97 58.61 50.80 48.93 47.28 46.55 46.76 44.59 44.97 44.42 41.50 39.96 42.52 43.98 45.17 42.66 44.08 41.79 43.52 42.73 43.93 55.51 58.40 58.88 59.31 59.79
54.05 55.14 55.89 56.94 57.48 59.95 60.36 61.31 61.65 61.29 60.88 59.81 58.41 57.21 48.99 42.10 52.81 56.22 58.09 54.88 51.39 49.44 46.92 47.68 47.08 49.56 46.55 46.02 45.32 43.62 41.09 41.19 42.75 43.56 42.17 42.05 40.43 43.09 43.66 50.68 56.67 57.95 57.60 58.35 59.65
53.34 54.18 55.65 56.39 57.39 57.28 59.61 60.85 61.29 60.83 60.71 60.71 60.01 55.57 46.79 45.65 52.26 55.83 53.83 51.00 50.45 48.69 46.28 47.28 47.94 46.86 46.17 45.45 46.82 44.38 40.99 40.49 40.11 41.80 40.90 40.98 39.18 40.84 41.62 53.23 56.06 56.80 57.37 57.76 58.78
53.17 53.15 54.53 56.41 57.03 57.01 59.17 60.21 60.54 60.29 59.83 59.93 59.37 52.57 42.76 52.61 51.80 53.83 51.03 49.59 49.80 48.84 48.49 48.81 48.13 45.40 43.61 43.48 41.73 40.01 38.55 35.49 37.54 40.96 39.42 40.49 36.54 42.46 43.98 52.98 53.82 55.05 55.56 56.34 57.42
52.71 52.25 52.99 53.54 56.90 57.06 58.64 59.17 60.01 59.85 59.23 58.13 51.54 49.27 42.84 54.89 49.68 50.62 49.87 47.65 48.66 46.68 46.64 49.23 46.65 42.59 40.79 37.88 35.20 34.72 31.90 32.98 35.58 39.44 38.31 38.32 37.20 40.59 42.04 48.75 51.22 53.26 55.22 56.57 56.97
52.27 52.37 52.54 54.05 56.20 57.03 58.11 58.82 58.76 55.96 54.71 52.95 51.56 45.89 48.09 44.04 49.01 49.86 48.80 48.76 45.49 45.59 43.99 42.73 39.77 36.64 34.69 34.67 33.06 31.64 31.88 32.82 34.35 38.51 36.63 35.82 37.63 37.91 38.69 43.79 47.10 49.01 50.56 52.19 54.54
52.06 51.85 52.51 54.04 54.23 57.11 57.37 55.37 48.01 46.49 48.11 43.46 42.76 44.40 45.62 48.44 50.75 48.13 48.27 46.17 44.61 41.78 36.03 37.57 34.78 31.35 33.72 35.70 36.64 35.62 35.92 35.18 34.01 37.59 36.42 36.46 37.23 38.62 36.73 36.07 38.57 40.62 42.85 46.05 52.17
51.51 51.75 52.75 54.50 54.46 57.00 56.30 49.91 49.09 47.58 42.87 46.85 45.92 47.00 49.48 48.45 43.51 46.08 47.84 42.20 39.43 34.52 36.56 34.86 31.96 36.32 38.61 37.70 36.25 35.12 34.14 33.53 34.63 36.61 36.91 34.14 36.21 37.11 36.80 37.57 38.38 39.30 38.02 40.08 40.12
51.12 51.26 52.51 54.38 54.50 55.48 53.64 51.39 52.05 51.37 42.29 43.01 45.96 45.97 47.26 47.43 42.80 42.60 45.16 40.83 37.48 34.50 33.99 33.08 35.72 38.71 37.88 35.61 35.11 32.56 33.12 31.86 33.94 34.44 34.23 33.03 33.61 34.99 38.01 37.22 37.69 38.04 38.63 38.78 40.69
50.41 50.73 51.92 54.17 50.38 53.26 51.84 52.07 52.85 50.18 35.08 36.95 41.53 43.96 46.39 48.56 44.19 47.91 46.47 43.05 36.91 34.90 34.62 34.09 36.62 37.13 34.31 34.56 35.22 30.47 35.92 36.03 34.40 33.35 29.77 31.37 26.50 31.73 34.89 37.19 37.30 39.05 37.94 39.41 39.28
50.06 50.51 51.65 54.47 51.64 49.84 52.01 52.79 51.08 47.58 25.38 38.46 39.98 47.51 45.28 45.96 45.24 45.70 47.69 42.30 35.71 34.61 34.51 32.48 34.25 33.78 32.97 34.59 36.12 33.89 36.46 35.42 33.13 30.03 28.33 26.91 26.69 30.75 30.52 32.77 35.36 39.41 40.82 40.90 41.61
49.61 50.60 51.60 52.56 49.96 53.80 52.30 51.21 46.39 32.07 22.03 33.98 39.79 38.47 39.59 40.44 42.66 45.18 43.63 44.41 41.05 36.73 35.00 33.93 36.09 37.34 36.83 36.51 37.50 37.08 33.99 32.74 30.02 29.16 24.65 28.38 28.30 27.90 30.06 34.52 35.12 37.09 40.03 42.51 40.94
49.01 50.15 50.78 52.69 46.37 54.77 50.95 45.44 30.73 26.16 35.41 31.33 33.24 37.14 38.21 35.72 37.50 40.62 38.46 37.47 33.26 28.26 27.89 30.66 31.32 33.50 36.00 34.23 34.40 33.30 31.13 23.22 23.13 22.40 23.42 25.72 25.45 31.21 33.97 35.20 36.42 37.36 37.98 37.77 37.29
48.56 49.84 51.42 51.77 53.10 51.67 48.02 37.47 25.39 29.71 29.95 35.12 35.23 36.18 33.13 35.07 35.28 39.65 37.19 34.29 38.85 33.67 28.90 26.98 25.48 32.84 34.60 34.05 31.67 31.01 31.88 24.11 18.52 19.12 23.05 26.27 24.82 30.86 35.96 39.10 36.18 37.18 37.51 36.71 35.01
48.27 47.75 50.40 52.04 54.85 50.77 41.50 29.91 27.39 30.85 33.55 33.50 34.32 31.32 29.21 34.42 33.69 35.02 36.48 36.32 38.68 35.91 29.94 26.82 27.29 32.93 34.50 35.49 37.75 31.60 28.54 32.46 25.79 16.66 20.23 24.48 27.87 34.17 35.26 35.74 36.27 36.62 36.20 37.16 36.50
44.45 47.21 48.09 52.10 53.05 47.06 36.82 32.92 30.30 36.22 36.58 36.25 29.50 32.89 28.54 31.97 30.70 33.18 33.26 38.82 37.64 38.83 38.76 32.08 28.28 31.79 33.20 35.39 34.78 34.23 36.61 29.41 25.39 17.67 17.07 22.78 24.30 27.97 32.55 36.38 35.06 35.72 36.41 36.36 36.24
43.08 42.32 48.93 52.88 50.73 41.40 32.03 32.76 32.78 38.19 38.72 34.87 30.74 30.98 32.09 31.53 32.95 32.05 32.77 35.22 40.44 36.71 34.46 33.58 31.44 28.49 33.28 31.76 30.73 31.32 29.68 29.61 30.31 26.99 21.23 17.46 23.97 31.44 36.98 37.43 36.29 36.66 36.94 36.53 36.72
41.91 36.61 50.42 51.65 36.27 34.86 33.24 34.77 38.00 36.94 39.22 35.13 35.10 32.78 33.38 33.97 30.65 32.42 31.14 33.98 41.60 37.70 34.61 35.90 31.47 25.03 28.66 32.57 34.92 32.49 33.42 33.48 28.99 24.02 24.23 24.64 25.11 32.70 33.95 34.87 36.63 36.35 37.14 37.70 37.59
35.37 35.29 50.36 48.66 30.99 31.33 36.82 36.15 36.79 36.35 37.25 34.83 32.85 34.04 36.52 34.13 29.54 33.18 33.10 38.52 40.26 38.36 36.85 36.64 29.96 23.34 26.54 31.07 32.55 31.80 30.67 32.71 29.98 27.94 23.40 22.15 26.42 33.32 34.57 35.11 35.32 35.83 34.93 36.59 37.31
34.01 32.02 37.79 44.10 39.84 34.88 34.42 34.45 32.37 38.92 37.35 36.25 34.28 36.06 35.11 32.83 33.58 31.84 32.41 36.58 39.24 39.83 41.41 40.43 32.22 30.03 26.47 31.17 32.84 29.69 31.62 31.40 31.98 24.76 24.69 27.03 27.80 32.68 34.00 34.95 35.33 35.71 35.88 36.52 37.10
31.71 31.63 31.89 33.58 32.07 36.00 36.97 35.98 32.46 32.85 36.63 36.71 32.89 35.65 33.94 30.48 31.01 30.39 33.06 34.45 37.27 40.23 39.12 37.87 29.66 29.09 28.51 28.98 33.74 31.39 31.64 32.54 32.83 34.77 30.48 33.81 30.81 34.55 34.41 34.95 35.42 35.91 35.98 36.60 37.03
31.28 30.81 31.84 35.78 37.33 35.47 36.98 34.33 33.56 33.61 34.46 34.64 33.37 35.07 35.39 30.61 33.47 29.36 32.27 31.99 32.80 34.38 35.42 34.21 23.72 27.86 22.81 29.26 29.95 29.33 32.83 33.09 34.17 35.13 34.48 31.71 30.47 34.47 35.56 33.56 34.93 37.25 37.30 37.25 37.30
33.31 32.74 33.76 35.30 35.21 35.13 35.08 35.28 35.50 37.23 35.26 39.05 36.37 33.63 32.42 33.79 37.51 37.54 38.73 37.76 36.80 35.67 33.37 31.95 26.49 25.11 16.36 24.97 26.93 24.38 30.16 32.60 34.23 35.86 34.46 29.95 35.14 35.57 34.51 34.55 35.49 36.90 37.21 37.81 38.28
MSLP
1010.24 1010.57 1010.47 1010.86 1011.01 1011.16 1011.43 1011.44 1011.81 1012.38 1012.73 1013.20 1014.03 1014.09 1014.54 1015.13 1015.02 1015.11 1014.42 1013.51 1013.86 1014.03 1014.44 1014.54 1014.62 1014.54 1014.81 1015.51 1015.88 1016.55 1017.68 1018.02 1017.48 1017.20 1016.48 1016.57 1016.95 1017.19 1017.36 1017.90 1018.45 1018.73 1019.07 1019.10 1019.99
1010.02 1010.11 1010.04 1010.52 1010.62 1010.66 1010.93 1011.24 1011.57 1012.10 1012.58 1013.00 1013.80 1014.16 1014.48 1015.46 1015.15 1014.77 1013.29 1013.17 1013.50 1014.00 1014.55 1014.54 1014.80 1014.89 1015.65 1015.93 1016.15 1016.53 1017.41 1017.17 1016.43 1016.15 1016.12 1016.26 1016.61 1016.99 1017.58 1018.27 1018.67 1018.86 1019.13 1019.46 1020.18
1009.16 1009.57 1009.76 1010.13 1010.31 1010.27 1010.49 1010.77 1011.18 1011.72 1012.11 1012.90 1013.56 1014.19 1015.19 1015.80 1015.50 1013.58 1012.88 1012.99 1013.43 1013.89 1014.12 1014.34 1014.71 1015.09 1016.12 1016.29 1016.32 1016.51 1016.74 1016.45 1015.74 1015.72 1015.88 1016.04 1016.70 1016.77 1017.34 1018.23 1017.98 1018.33 1019.15 1019.68 1020.24
1009.04 1009.48 1009.40 1009.49 1009.76 1009.81 1010.00 1010.40 1011.08 1011.36 1011.88 1012.66 1013.51 1014.22 1015.36 1015.90 1014.88 1012.22 1011.94 1012.57 1013.19 1013.86 1014.35 1014.65 1014.98 1015.57 1016.16 1016.60 1016.22 1016.63 1016.20 1016.14 1015.72 1015.58 1015.64 1016.08 1016.39 1016.80 1016.92 1016.79 1016.76 1017.54 1018.04 1019.34 1020.02
1008.77 1009.10 1008.92 1008.89 1009.24 1009.20 1009.55 1010.06 1010.73 1011.29 1011.88 1012.95 1013.29 1014.51 1015.29 1015.70 1014.11 1011.92 1011.95 1012.47 1013.21 1013.86 1014.20 1014.69 1015.21 1015.70 1016.09 1016.03 1016.24 1016.49 1016.25 1016.10 1015.84 1015.57 1015.61 1015.65 1016.19 1016.61 1016.89 1016.94 1017.21 1017.97 1018.78 1019.16 1019.73
1008.59 1008.65 1008.42 1008.61 1008.52 1008.65 1009.10 1009.70 1010.33 1011.20 1011.96 1012.96 1013.60 1014.22 1014.92 1015.04 1012.89 1011.86 1012.15 1012.68 1013.09 1013.72 1014.33 1014.51 1015.00 1015.38 1016.16 1016.29 1016.25 1016.23 1016.26 1016.24 1015.88 1015.96 1016.01 1015.93 1016.30 1016.54 1017.10 1017.43 1018.02 1018.37 1018.94 1019.40 1019.53
1008.44 1008.01 1008.35 1008.34 1008.46 1008.64 1008.83 1009.34 1009.96 1010.89 1011.62 1012.54 1013.44 1013.70 1014.25 1014.14 1013.16 1012.50 1012.57 1012.61 1013.15 1013.68 1014.26 1014.37 1014.58 1014.99 1015.81 1016.52 1016.20 1016.44 1016.84 1016.48 1016.06 1016.15 1016.36 1016.35 1016.79 1016.66 1017.05 1017.75 1018.46 1018.81 1019.17 1019.53 1019.79
1008.24 1008.61 1008.35 1007.98 1008.02 1008.45 1008.65 1009.01 1009.65 1010.51 1011.45 1012.31 1013.07 1013.50 1013.44 1013.48 1013.32 1012.53 1012.63 1013.09 1013.60 1013.77 1013.91 1014.17 1014.42 1015.12 1015.68 1016.02 1016.53 1017.09 1017.27 1016.95 1016.43 1016.29 1016.70 1016.67 1016.85 1016.88 1017.44 1017.84 1018.78 1019.16 1019.37 1019.65 1019.82
1008.05 1008.16 1007.71 1007.87 1007.63 1008.17 1008.42 1008.86 1009.78 1010.66 1011.27 1012.59 1013.57 1013.78 1013.42 1012.88 1012.75 1012.04 1012.70 1013.28 1013.88 1014.01 1014.08 1014.29 1014.75 1015.57 1016.23 1016.47 1017.10 1017.31 1017.22 1017.13 1016.85 1016.61 1016.92 1017.20 1017.18 1016.86 1017.51 1018.34 1018.82 1019.25 1019.39 1019.51 1019.77
1007.23 1007.22 1006.95 1007.09 1007.23 1007.65 1008.04 1008.95 1010.26 1011.17 1012.15 1012.61 1013.43 1013.63 1012.80 1012.12 1012.14 1012.39 1012.80 1013.31 1013.92 1014.25 1014.55 1014.99 1015.79 1016.35 1016.89 1016.94 1016.64 1017.36 1017.54 1017.42 1017.06 1017.13 1017.25 1017.61 1017.49 1017.46 1017.85 1018.43 1018.88 1019.13 1019.37 1019.63 1019.53
1006.95 1006.26 1006.68 1006.86 1007.30 1007.16 1007.47 1008.61 1010.79 1011.82 1011.57 1011.57 1011.82 1011.83 1011.28 1011.52 1011.96 1012.64 1013.55 1013.33 1013.99 1014.53 1015.08 1015.71 1016.44 1016.60 1016.95 1017.15 1016.92 1017.15 1017.34 1017.58 1017.33 1017.26 1017.48 1017.53 1017.54 1017.62 1018.13 1018.78 1019.18 1019.33 1019.42 1019.36 1018.98
1005.52 1005.57 1006.54 1006.70 1006.89 1006.87 1006.35 1007.17 1008.11 1008.56 1010.58 1011.25 1011.35 1011.72 1011.25 1010.79 1012.16 1012.80 1012.72 1013.44 1014.34 1015.04 1015.72 1016.68 1016.43 1016.63 1016.88 1017.01 1017.03 1017.34 1017.40 1017.95 1018.05 1017.88 1018.01 1017.98 1017.81 1017.75 1018.12 1018.20 1018.32 1018.61 1019.01 1018.84 1018.84
1005.70 1005.84 1005.89 1006.15 1006.65 1007.05 1005.83 1006.69 1007.22 1007.92 1009.62 1011.46 1010.83 1011.53 1011.43 1011.17 1012.06 1012.82 1013.04 1013.78 1014.38 1015.62 1016.13 1016.34 1016.49 1016.61 1016.79 1017.14 1017.58 1017.69 1017.52 1017.98 1018.27 1018.42 1018.58 1018.45 1018.27 1017.72 1017.60 1017.65 1017.72 1018.25 1018.13 1018.37 1018.02
1004.96 1005.23 1005.14 1006.19 1007.12 1005.65 1005.48 1006.62 1006.98 1006.90 1009.06 1010.84 1010.98 1011.05 1011.41 1011.49 1012.96 1013.38 1013.35 1013.64 1014.78 1015.53 1016.32 1016.32 1016.33 1016.58 1017.01 1017.05 1017.33 1017.95 1017.68 1017.95 1018.58 1019.05 1019.26 1019.04 1018.37 1017.56 1017.35 1017.37 1017.43 1017.50 1017.60 1017.31 1017.56
1004.44 1004.85 1005.15 1005.54 1004.52 1004.48 1004.97 1005.84 1006.95 1007.77 1008.97 1010.09 1010.68 1010.11 1011.16 1011.60 1011.76 1013.25 1013.65 1013.53 1014.37 1015.08 1015.80 1015.72 1016.24 1016.71 1016.89 1016.83 1017.30 1017.78 1017.85 1018.36 1019.01 1019.69 1019.70 1019.85 1019.61 1017.31 1017.14 1017.20 1016.93 1016.58 1016.41 1016.31 1016.10
1004.21 1004.53 1004.55 1004.36 1005.04 1003.15 1004.50 1005.35 1006.73 1008.22 1008.48 1009.46 1009.78 1010.04 1011.11 1011.71 1012.36 1013.48 1014.33 1014.15 1014.20 1014.87 1015.32 1015.74 1015.84 1015.94 1015.82 1016.21 1016.73 1017.64 1018.35 1019.26 1020.06 1020.68 1020.62 1019.48 1019.31 1017.12 1016.80 1016.18 1015.70 1015.55 1015.21 1015.18 1015.49
1003.40 1003.68 1003.47 1003.10 1003.19 1003.16 1004.12 1005.48 1006.78 1007.20 1008.54 1009.19 1008.93 1009.44 1010.68 1011.82 1012.87 1013.26 1014.77 1014.63 1014.22 1014.89 1015.48 1015.92 1016.13 1015.99 1015.76 1016.43 1017.08 1017.73 1018.65 1020.41 1021.53 1021.65 1020.75 1019.97 1019.65 1016.67 1015.48 1015.07 1014.89 1014.87 1015.04 1015.31 1015.67
1002.80 1002.19 1001.34 1001.38 1002.58 1002.24 1004.14 1006.03 1006.40 1006.35 1007.13 1007.48 1008.40 1009.70 1010.53 1011.44 1012.46 1012.80 1014.10 1014.33 1014.27 1014.32 1015.37 1015.78 1016.33 1015.83 1015.58 1015.55 1016.27 1017.74 1018.14 1019.25 1020.62 1021.67 1021.42 1020.73 1018.43 1015.56 1014.09 1013.67 1014.14 1014.59 1015.09 1015.53 1015.97
1002.14 1001.09 1000.40 1000.69 1001.77 1001.62 1003.81 1004.74 1003.02 1003.93 1004.72 1006.35 1008.42 1009.43 1010.50 1011.14 1011.45 1012.73 1013.25 1012.38 1012.29 1013.14 1013.64 1014.89 1015.50 1015.67 1015.49 1015.27 1015.50 1017.05 1017.80 1018.38 1020.05 1021.94 1021.55 1019.48 1017.36 1015.34 1013.80 1013.80 1013.77 1014.22 1015.12 1015.81 1016.73
1001.34 1000.40 999.32 1000.08 1000.88 1001.28 1003.27 1001.90 1001.81 1002.27 1003.52 1005.31 1006.42 1007.35 1008.32 1009.91 1010.61 1011.11 1011.95 1011.48 1011.68 1011.88 1011.37 1013.12 1015.33 1015.50 1015.51 1015.49 1015.63 1015.36 1016.75 1018.05 1019.57 1021.09 1021.34 1019.23 1017.76 1015.20 1013.92 1013.32 1013.22 1014.12 1015.01 1015.91 1016.87
1001.16 999.24 997.52 1000.23 1000.26 1001.55 1001.34 1001.46 1001.42 1001.39 1001.79 1003.28 1004.52 1006.15 1006.88 1008.09 1008.94 1009.70 1009.43 1009.42 1010.67 1011.57 1011.75 1012.38 1013.46 1016.02 1015.74 1015.15 1015.26 1015.87 1015.89 1017.15 1018.17 1019.34 1019.52 1019.22 1016.82 1013.96 1012.80 1012.05 1012.90 1013.46 1014.71 1015.67 1016.52
1000.58 999.03 997.65 998.75 1000.42 1001.15 1000.95 1000.90 1001.16 1001.63 1001.48 1002.28 1003.63 1004.46 1005.45 1006.91 1008.16 1009.03 1009.09 1008.47 1009.43 1010.37 1011.08 1011.79 1013.02 1015.50 1015.09 1015.03 1014.96 1015.00 1015.12 1015.93 1017.18 1018.80 1019.18 1018.72 1015.57 1013.53 1013.02 1012.92 1012.93 1013.22 1014.23 1015.30 1016.34
1000.01 998.98 996.90 997.92 998.75 1000.47 1000.79 1000.55 1000.64 1000.95 1001.00 1002.15 1003.20 1003.59 1004.59 1006.38 1008.10 1008.11 1008.26 1008.38 1008.64 1009.55 1009.86 1010.76 1012.84 1015.10 1016.11 1016.06 1015.38 1014.57 1014.66 1014.89 1016.13 1017.30 1017.58 1017.77 1014.72 1013.65 1013.27 1012.91 1012.92 1013.34 1014.17 1015.25 1016.53
1000.51 999.53 997.65 997.45 999.21 999.44 1000.03 1000.38 1000.42 1000.86 1001.21 1001.67 1002.41 1003.32 1004.91 1006.21 1006.71 1007.61 1008.06 1008.37 1008.45 1008.87 1009.35 1010.23 1012.32 1013.25 1013.61 1012.14 1013.84 1014.65 1014.45 1014.91 1015.50 1016.87 1016.36 1014.99 1014.52 1013.60 1013.40 1013.24 1013.08 1013.42 1014.37 1015.38 1016.58
1000.37 999.16 998.10 996.30 998.67 999.36 999.97 999.87 999.76 1000.17 1000.59 1001.25 1002.56 1002.41 1003.29 1005.61 1006.46 1006.93 1007.52 1008.24 1008.54 1009.06 1009.55 1009.96 1012.36 1013.65 1013.86 1013.64 1013.80 1013.78 1013.68 1013.79 1014.38 1013.64 1014.75 1011.04 1013.53 1012.96 1012.56 1012.88 1013.12 1013.64 1014.47 1015.37 1016.26
1000.52 1000.03 998.77 997.40 997.71 999.40 999.43 999.29 998.60 999.41 999.96 1000.54 1001.07 1002.17 1002.68 1003.48 1003.85 1005.77 1006.72 1007.39 1007.96 1009.57 1009.97 1010.59 1013.04 1014.07 1015.08 1014.74 1014.20 1013.94 1013.58 1013.75 1013.51 1011.99 1012.63 1012.21 1012.36 1012.12 1012.18 1012.72 1013.23 1013.73 1014.53 1015.14 1015.65
1000.52 1000.30 999.00 998.63 997.92 998.52 998.50 998.73 998.47 999.15 999.88 1000.33 1001.10 1002.50 1003.16 1003.41 1004.17 1005.37 1006.17 1007.10 1007.74 1008.99 1010.48 1011.68 1013.15 1015.06 1016.46 1015.84 1015.00 1014.94 1012.51 1012.09 1011.90 1011.46 1010.84 1011.47 1010.69 1012.31 1012.71 1012.98 1012.95 1013.39 1013.68 1014.17 1014.71
Wind_Speed
21 20 16 13 21 18 16 17 21 22 15 11 9 10 7 5 4 3 7 7 7 4 2 3 0 3 2 3 3 4 5 2 6 7 4 6 4 3 2 7 2 3 6 6 17
18 19 14 13 20 20 17 16 23 22 23 18 12 8 4 8 1 7 6 8 8 13 7 8 5 4 4 2 2 5 4 9 6 4 6 8 7 9 5 3 1 3 4 16 18
13 18 18 19 13 22 18 17 18 21 19 17 17 14 6 4 3 9 12 8 10 11 5 4 5 5 4 4 1 2 4 4 4 5 6 9 5 5 10 4 7 10 14 17 17
10 16 18 17 14 24 20 18 17 15 19 19 17 15 11 4 11 2 14 14 11 7 7 6 4 6 5 5 2 2 4 2 5 1 8 9 7 6 6 8 9 12 23 18 17
7 9 15 17 15 25 21 20 19 17 17 18 22 19 9 2 9 2 4 13 9 8 10 6 6 6 7 6 6 4 2 4 5 2 3 9 4 5 4 3 8 11 16 19 16
6 8 10 19 17 22 22 21 21 21 21 23 22 19 9 6 8 4 7 9 7 6 6 7 8 3 6 2 3 0 1 4 4 4 1 5 3 6 6 5 9 15 14 14 16
7 6 9 19 15 14 21 20 23 21 21 23 26 13 8 7 8 1 5 6 7 6 7 3 5 5 7 5 4 7 4 3 0 3 3 1 2 7 5 8 12 13 12 9 10
11 8 8 19 17 16 20 21 21 21 22 19 17 2 5 2 4 5 2 6 5 4 4 6 5 5 4 4 5 7 4 5 2 5 2 4 10 4 6 12 11 10 9 9 10
11 8 8 11 18 16 21 21 22 22 23 16 5 3 7 2 3 3 4 8 7 3 3 5 4 4 3 7 4 3 4 4 1 3 3 3 7 4 7 6 9 9 11 12 9
10 10 9 11 15 18 21 24 24 20 15 9 3 3 4 8 4 4 1 8 5 6 5 5 5 4 3 4 12 6 4 2 5 5 3 4 9 4 4 8 11 9 8 8 9
13 11 11 10 15 20 21 15 13 7 7 7 17 3 9 6 5 4 4 6 5 6 6 3 5 7 7 6 7 6 5 4 2 1 3 8 8 8 3 3 7 9 8 10 14
12 10 13 14 16 21 19 14 16 7 8 5 9 4 3 6 6 4 4 7 6 5 5 4 7 7 8 6 5 5 7 6 1 0 3 1 10 7 5 8 9 11 9 11 6
14 12 13 16 17 18 17 19 13 14 7 3 6 2 3 1 6 7 9 4 7 7 5 8 7 7 8 6 6 3 6 5 4 2 2 3 7 4 6 5 5 7 8 8 15
15 13 15 17 9 16 16 15 17 6 5 5 4 8 4 6 5 2 4 5 3 11 7 6 2 10 5 7 7 5 5 6 6 5 4 1 6 6 6 9 6 11 10 13 12
15 15 14 23 4 19 15 19 13 8 16 12 6 4 6 12 13 4 3 2 8 6 7 7 8 8 5 7 6 8 6 7 4 3 3 2 1 8 2 6 8 14 16 15 15
15 17 17 14 14 11 19 16 4 6 5 8 8 11 13 5 8 14 4 5 4 6 3 6 1 8 12 4 9 8 8 7 5 3 5 7 7 6 7 9 6 8 15 18 11
16 17 15 13 16 19 16 9 7 11 12 8 13 18 22 9 9 24 17 14 7 8 6 2 1 3 3 7 4 3 7 2 0 2 7 1 4 7 6 9 9 8 8 10 8
15 17 11 15 15 24 13 10 9 11 16 4 12 19 14 8 5 22 25 19 14 3 5 7 5 8 3 7 9 7 9 7 8 4 4 1 9 8 11 12 6 7 6 6 6
13 5 8 15 15 18 19 14 16 26 14 17 13 22 4 8 9 13 20 28 23 19 10 7 6 1 1 4 12 7 8 6 8 3 4 6 7 10 6 10 9 10 5 7 6
3 6 14 15 14 20 18 19 6 13 19 21 15 18 20 25 10 20 21 20 19 27 12 9 6 3 2 1 0 9 9 4 3 5 4 5 6 6 6 15 6 6 9 6 4
1 5 11 18 14 15 23 10 3 16 24 19 11 15 16 23 17 23 28 6 29 20 2 8 7 4 5 8 9 4 5 4 6 6 6 1 9 11 16 11 10 9 8 9 9
2 8 13 19 12 10 17 8 7 20 13 5 8 5 23 24 10 20 17 9 27 12 11 3 7 5 6 1 3 2 8 8 8 5 1 3 9 2 8 6 6 7 9 7 6
3 1 10 15 7 15 12 4 6 23 24 8 6 4 15 19 9 13 12 13 20 17 17 10 0 6 5 5 2 8 5 6 7 4 7 5 7 2 6 5 3 6 5 6 7
1 4 6 13 4 19 17 14 7 15 11 5 8 10 17 13 3 15 10 10 17 16 11 10 4 8 14 25 9 6 9 7 8 3 4 13 3 6 6 6 1 2 4 7 7
2 3 0 13 10 18 18 19 14 12 6 7 3 20 17 15 12 8 6 5 10 11 6 9 8 5 2 2 9 5 10 14 17 25 15 26 15 13 9 9 6 3 2 4 6
2 3 2 7 21 22 22 18 21 11 13 22 15 22 15 11 20 7 8 3 9 3 8 2 4 4 4 4 5 6 9 12 17 27 22 7 9 4 6 3 5 8 8 8 8
1 2 1 9 17 21 21 25 28 21 1 19 17 9 8 8 12 10 7 10 14 14 8 6 7 5 4 2 6 4 23 22 22 20 19 17 11 8 8 8 9 10 9 10 10
Wind_Direction
238 242 239 284 236 215 214 212 185 185 184 154 162 147 146 188 145 201 206 198 172 211 154 127 30 112 66 82 81 128 72 219 196 160 213 146 142 157 32 119 92 134 157 171 139
250 229 230 246 240 217 211 200 188 179 176 164 161 144 132 204 254 252 241 186 186 161 154 163 158 84 50 52 38 98 129 212 196 209 193 170 164 158 122 129 71 88 58 131 142
253 232 228 229 264 221 209 199 193 173 167 164 156 141 115 326 228 234 193 190 173 172 156 153 127 96 75 14 31 144 189 220 248 208 188 162 168 164 124 235 203 175 150 150 155
266 230 234 248 274 223 205 189 182 169 171 156 145 128 134 93 192 242 189 184 169 152 127 131 120 119 140 166 211 249 260 240 310 297 148 166 128 153 174 211 173 166 159 154 167
253 257 248 249 274 213 199 187 175 161 150 146 138 142 129 120 255 289 174 163 137 152 156 141 134 137 153 156 141 168 274 305 331 297 175 131 182 184 207 13 125 131 160 167 174
310 267 257 242 235 208 197 190 174 165 160 155 149 144 103 178 297 352 134 132 139 134 145 144 171 174 103 128 134 136 356 296 4 31 99 131 162 136 232 123 129 151 172 179 180
262 308 289 237 226 261 195 188 171 160 153 158 164 172 156 177 282 139 137 151 134 137 145 182 153 133 124 128 194 135 248 301 29 2 48 53 5 224 166 147 155 174 179 181 196
257 249 259 230 210 229 209 183 164 157 150 152 161 194 196 125 234 144 119 78 129 126 125 172 146 108 143 140 83 145 143 175 249 130 3 90 246 270 165 149 175 183 181 189 203
244 254 291 295 208 215 211 177 145 146 144 141 111 191 204 343 183 141 143 139 132 82 68 111 111 144 95 127 100 43 169 179 199 185 137 148 258 236 160 177 181 192 197 203 209
246 242 274 248 236 217 195 156 127 112 124 100 11 99 267 186 162 141 126 128 134 124 80 86 64 115 54 158 195 161 134 189 174 211 144 179 259 286 206 176 203 206 206 203 207
249 266 254 252 260 214 160 141 128 145 206 167 177 256 135 147 110 116 175 94 85 92 145 156 132 188 175 178 159 155 150 175 254 135 148 201 240 243 205 230 232 225 214 218 222
253 269 251 254 237 222 158 168 168 147 145 112 185 304 180 151 104 135 127 117 128 128 112 89 205 189 174 166 144 167 163 177 335 279 139 124 264 254 196 221 213 214 223 231 235
247 262 253 254 226 212 177 187 141 143 104 212 144 135 226 83 115 168 151 117 121 127 162 158 204 153 153 157 148 201 167 169 168 144 8 99 290 248 231 245 213 231 227 229 223
249 261 259 248 237 214 178 165 168 168 109 189 140 203 145 142 90 41 194 133 145 171 134 166 163 160 163 190 136 189 206 159 133 132 212 177 269 261 235 236 211 238 227 233 232
255 266 259 228 255 203 160 160 168 60 186 153 157 126 164 160 131 240 8 57 155 156 135 203 149 141 164 184 148 210 152 159 135 131 130 227 206 258 146 259 239 238 233 231 225
255 261 268 215 224 165 159 158 161 141 190 171 145 139 151 160 159 155 27 342 144 120 93 183 180 162 188 138 162 137 88 52 52 86 259 195 180 239 184 203 236 239 231 231 221
265 266 275 191 207 174 160 155 141 196 151 170 166 157 168 159 131 155 172 221 182 123 166 89 206 299 147 105 92 167 123 73 251 227 232 237 187 252 240 231 217 247 265 244 213
277 275 258 199 207 147 154 161 172 169 178 155 146 156 171 134 124 171 169 189 215 123 125 149 217 167 189 167 152 176 173 155 183 185 221 218 231 242 220 254 229 241 265 303 221
293 258 213 194 198 160 152 185 187 168 156 146 118 156 121 170 126 163 186 191 193 184 163 145 217 343 243 147 152 195 205 165 102 47 52 226 290 298 256 265 256 233 224 253 230
286 251 197 182 162 155 165 195 141 157 124 138 156 180 170 178 147 180 179 198 194 204 169 200 159 173 174 131 0 189 155 156 13 132 254 282 283 242 242 230 229 238 225 229 210
238 238 186 161 137 175 180 183 142 164 142 155 143 173 181 172 182 183 189 194 197 185 198 145 116 208 128 205 162 149 164 80 121 155 171 220 260 217 211 233 224 222 208 201 199
222 214 168 160 159 191 183 150 140 167 149 120 106 93 180 177 159 184 185 195 184 161 163 178 115 142 194 170 171 190 175 172 189 200 141 155 271 310 259 278 245 224 197 194 177
238 229 191 176 160 180 179 176 145 165 171 145 132 139 154 171 177 189 181 192 173 175 169 173 292 93 24 348 241 206 189 140 97 73 204 162 259 349 314 313 249 212 196 189 174
148 168 260 162 198 173 171 188 127 173 166 101 114 105 144 177 212 186 163 172 182 184 140 110 115 164 190 213 104 168 166 161 138 172 162 239 226 287 269 267 241 147 162 174 182
223 228 175 173 174 183 178 175 143 154 179 135 145 166 157 184 176 182 152 127 175 169 159 139 160 145 242 189 174 171 184 178 186 222 188 244 212 218 229 221 218 229 184 173 196
185 235 124 194 169 174 187 184 174 164 155 193 174 168 173 160 185 128 113 110 160 43 165 7 106 116 15 18 187 183 180 181 210 226 230 206 266 229 252 115 183 207 195 208 218
154 298 351 184 168 173 188 181 192 163 57 184 144 134 179 173 136 149 160 154 156 164 177 113 118 90 256 329 69 355 206 193 217 217 223 225 228 193 218 210 213 227 208 213 219